Location: Yliskallo
(61.5000°N, 22.9000°E)
Time: 03:41:03
(UTC+00:00)

Daily predictions for brighter satellites

Satellite Brightness Start Highest point End
(mag) Time Altitude Azimuth Time Altitude Azimuth Time Altitude Azimuth
Cosmos 2219 Rocket 4.1 00:19:19 23° ENE 00:19:19 23° ENE 00:22:12 10° NE
NOSS 3-4 (A) 4.5 00:23:42 43° ENE 00:23:42 43° ENE 00:28:07 10° ENE
NOSS 3-4 (C) 4.5 00:23:47 43° ENE 00:23:47 43° ENE 00:28:13 10° ENE
Cosmos 1943 Rocket 4.3 00:32:13 17° E 00:32:13 17° E 00:33:33 10° E
Cosmos 2360 Rocket 3.6 00:31:38 34° NE 00:31:38 34° NE 00:34:48 10° NE
Cosmos 1697 Rocket 4.1 00:32:08 34° NNE 00:32:08 34° NNE 00:35:55 10° NE
Cosmos 1980 Rocket 3.5 00:38:02 35° NNE 00:38:02 35° NNE 00:41:41 10° NE
Cosmos 2344 3.7 00:39:20 84° E 00:39:20 84° E 00:48:36 10° ENE
COSMOS 2428 4.2 00:40:37 30° E 00:40:37 30° E 00:44:14 10° NE
CZ-2D R/B 3.6 00:36:16 10° NNE 00:39:05 33° NNE 00:39:05 33° NNE
ATLAS 2AS CENTAUR R/B 3.0 00:55:53 80° N 00:55:53 80° N 01:03:28 10° ENE
Cosmos 2369 Rocket 3.2 00:57:07 43° ENE 00:57:07 43° ENE 01:01:35 10° ESE
SL-16 R/B 3.1 01:01:39 44° NNE 01:01:39 44° NNE 01:05:40 10° NE
CZ-4C R/B 3.9 01:04:17 25° ESE 01:04:17 25° ESE 01:08:40 10° ENE
ADEOS II 3.1 01:02:50 10° NNE 01:06:36 43° NE 01:06:36 43° NE
IDEFIX/ARIANE 42P 4.2 01:07:13 10° NNE 01:11:43 27° E 01:12:29 26° ESE
Cosmos 1821 Rocket 4.2 01:08:50 10° NNW 01:14:21 63° NE 01:14:21 63° NE
SL-16 R/B 4.5 01:22:32 16° NW 01:22:32 16° NW 01:24:03 10° NNW
Resurs 1-4 Rocket 3.2 01:17:22 10° NNE 01:20:48 39° N 01:20:48 39° N
IRS-1D 4.5 01:18:47 10° NNE 01:22:18 44° NNE 01:22:18 44° NNE
Cosmos 2333 Rocket 2.7 01:25:47 55° E 01:25:47 55° E 01:30:33 10° NE
Cosmos 2322 4.1 01:31:22 61° NE 01:31:22 61° NE 01:36:01 10° NE
COSMOS 2455 3.4 01:31:26 51° NNW 01:31:40 51° N 01:37:33 10° ENE
Cosmos 2239 Rocket 4.4 01:33:50 10° NNW 01:39:58 81° ENE 01:39:58 81° ENE
Spot 4 Rocket 4.5 01:38:06 10° NNE 01:42:37 59° ENE 01:42:37 59° ENE
EO 1 Delta rocket 4.5 01:39:03 10° NNE 01:43:47 61° E 01:43:47 61° E
NOSS 2-2 (C) 4.5 01:45:18 59° E 01:45:18 59° E 01:50:28 10° ESE
Cosmos 2322 Rocket 2.8 01:45:00 48° NNW 01:45:00 48° NNW 01:50:06 10° NE
NOSS 2-2 (E) 4.4 01:48:05 65° E 01:48:05 65° E 01:53:41 10° ESE
ARIANE 5 R/B 3.0 01:43:35 10° NNE 01:47:33 56° NNE 01:47:33 56° NNE
USA 215 3.9 01:44:32 10° E 01:50:39 40° SSE 01:51:07 39° SSE
Nadezhda 3 Rocket 4.4 01:49:10 43° SSE 01:51:03 59° E 01:57:17 10° NNE
Cosmos 2237 Rocket 2.8 01:52:28 45° SE 01:52:56 46° ESE 01:58:19 10° NE
Cosmos 2181 Rocket 4.1 01:58:00 65° NW 01:58:00 65° NW 02:04:11 10° NNE
Cosmos 1455 4.1 01:59:37 29° ENE 01:59:37 29° ENE 02:02:25 10° NNE
Cosmos 1812 Rocket 4.5 02:01:31 48° NNE 02:01:31 48° NNE 02:04:50 10° NNE
Cosmos 2219 Rocket 2.1 02:01:02 84° NE 02:01:02 84° NE 02:06:34 10° NE
Cosmos 1340 Rocket 4.4 02:08:21 32° NNE 02:08:21 32° NNE 02:10:36 10° NNE
Cosmos 1048 Rocket 4.1 02:08:53 68° N 02:08:53 68° N 02:13:27 10° NE
NOSS 3-4 (A) 3.6 02:11:07 57° WNW 02:12:30 76° N 02:19:35 10° E
Cosmos 1943 Rocket 2.4 02:13:49 54° SSE 02:13:49 54° SSE 02:18:02 10° SE
NOSS 3-4 (C) 3.6 02:11:12 57° WNW 02:12:36 76° N 02:19:41 10° E
Cosmos 2360 Rocket 2.5 02:13:23 51° NW 02:13:27 51° NNW 02:18:59 10° NE
ATLAS CENTAUR R/B 3.4 02:13:09 22° SE 02:13:47 22° SE 02:17:12 10° ENE
NOSS 0 Rocket 4.1 02:12:44 55° S 02:13:53 66° SE 02:20:04 10° NE
Cosmos 1697 Rocket 4.1 02:13:50 25° NW 02:15:52 32° N 02:20:55 10° ENE
Cosmos 1535 Rocket 4.3 02:11:15 10° NNW 02:17:35 83° WSW 02:20:17 37° S
CZ-2D R/B 3.2 02:16:42 10° N 02:20:26 30° NNW 02:20:26 30° NNW
Cosmos 1980 Rocket 3.5 02:19:47 27° NW 02:21:26 32° N 02:26:28 10° ENE
COSMOS 2428 2.6 02:22:37 74° W 02:23:01 78° NW 02:28:49 10° NE
Cosmos 1743 Rocket 4.2 02:24:19 10° N 02:28:35 53° ENE 02:32:50 10° SSE
SL-16 R/B 3.2 02:33:07 22° S 02:36:14 42° ESE 02:41:33 10° NE
Cosmos 2369 Rocket 2.1 02:38:57 50° WNW 02:40:25 70° SW 02:46:07 10° SSE
Cosmos 1980 3.7 02:41:15 54° SSW 02:42:37 83° SE 02:48:21 10° NE
CZ-2D R/B 4.3 02:38:52 10° N 02:41:52 40° NNW 02:41:52 40° NNW
SL-16 R/B 3.2 02:43:30 30° NW 02:45:02 35° NNW 02:50:15 10° NE
Cosmos 2084 Rocket 3.5 02:45:40 73° NNW 02:45:51 74° N 02:50:19 10° E
Cosmos 494 Rocket 3.8 02:46:21 65° W 02:46:49 70° NW 02:51:58 10° NNE
ATLAS 2AS CENTAUR R/B 3.0 02:43:18 33° WNW 02:47:17 81° NNE 02:54:48 10° ESE
ADEOS II 2.7 02:42:47 10° NNE 02:47:33 40° NW 02:47:33 40° NW
Cosmos 1934 Rocket 4.0 02:44:07 10° NNW 02:50:15 57° W 02:53:10 31° SSW
CZ-4C R/B 2.5 02:49:27 45° SSW 02:51:12 67° SE 02:57:51 10° ENE
IDEFIX/ARIANE 42P 2.4 02:46:36 10° NNE 02:51:54 80° WNW 02:53:18 50° SW
PAYLOAD A 4.2 02:48:24 10° NNE 02:53:13 64° ESE 02:56:33 21° S
Cosmos 921 Rocket 3.1 02:50:40 23° NNW 02:53:29 82° ENE 02:57:54 10° SSE
Cosmos 2344 4.0 02:49:19 32° WNW 02:53:55 82° N 03:04:44 10° E
Lacrosse 5 3.7 02:56:47 17° S 02:56:47 17° S 02:58:22 10° SSE
Cosmos 2263 4.1 02:51:36 29° NW 02:54:37 72° SW 03:00:16 10° SSE
Cosmos 1656 Rocket 3.6 02:51:27 20° NW 02:55:29 90° NE 03:01:12 10° SE
NOSS 2-2 (D) 4.0 02:54:23 53° W 02:55:35 74° SSW 03:02:13 10° SE
Cosmos 2251 Rocket 4.1 02:55:36 22° S 02:58:55 55° ESE 03:04:07 10° NE
deb Chang Zheng 4 3.8 02:55:21 10° NNE 02:59:15 52° NW 02:59:15 52° NW
Cosmos 1633 3.6 02:56:24 10° N 02:59:59 47° ENE 03:03:31 10° SE
Resurs 1-4 Rocket 3.6 02:57:43 10° N 03:01:41 22° NW 03:01:53 22° NW
PSLV R/B 3.3 02:58:07 10° NNE 03:02:22 85° WNW 03:03:03 62° SSW
Meteor 2-3 Rocket 3.6 02:57:15 10° NNW 03:02:59 74° WSW 03:08:45 10° S
USA 116 4.5 03:00:52 10° SE 03:03:48 40° ENE 03:06:49 10° N
CZ-2C R/B 2.8 03:00:46 10° NNE 03:06:00 70° ESE 03:10:46 12° S
ADEOS Rocket 3.9 03:02:01 10° SE 03:08:26 58° ENE 03:15:35 10° NNW
COSMO-SKYMED 1 2.6 03:04:11 10° SSE 03:08:33 81° ENE 03:12:55 10° NNW
Cosmos 2333 Rocket 2.5 03:07:47 40° W 03:09:23 52° NNW 03:15:00 10° NE
RESURS DK-1 3.9 03:08:48 23° NNW 03:09:57 26° N 03:13:30 10° NE
Celestis-02/Orion 38 4.5 03:05:38 10° NE 03:10:45 74° NW 03:12:23 44° WSW
Cosmos 2221 3.6 03:09:09 10° SSE 03:13:13 44° E 03:17:20 10° NNE
Cosmos 1461 3.2 03:13:16 47° NW 03:14:04 55° N 03:18:19 10° ENE
Meteor 2-1 Rocket 4.2 03:12:32 40° WSW 03:14:18 59° WNW 03:19:51 10° NNE
Cosmos 1605 Rocket 4.0 03:08:10 10° NNW 03:14:19 57° W 03:20:20 10° S
ALOS 4.0 03:10:15 10° NNE 03:14:32 34° E 03:18:47 10° SSE
Cosmos 2322 4.3 03:13:17 33° WNW 03:15:03 42° NNW 03:20:27 10° NE
Cosmos 1484 Rocket 4.1 03:14:14 10° NNE 03:17:59 42° E 03:21:46 10° S
Cosmos-2242 3.0 03:17:31 54° WSW 03:18:05 59° WNW 03:22:20 10° N
COSMOS 2455 3.2 03:14:34 22° NW 03:18:26 61° NNE 03:24:26 10° ESE
Cosmos 2016 Rocket 4.4 03:14:26 10° NNW 03:20:38 66° ENE 03:26:53 10° SSE
CBERS 1 LM4 rocket 4.5 03:16:17 10° NNE 03:21:26 65° WNW 03:23:35 34° SW
Cosmos 1269 Rocket 4.2 03:20:17 40° WSW 03:21:54 57° NW 03:27:09 10° NNE
CZ-2C R/B 4.0 03:18:37 10° N 03:21:00 27° NNW 03:21:00 27° NNW
ADEOS 3.5 03:18:36 10° NNE 03:23:52 80° WNW 03:27:37 20° SSW
ARIANE 5 R/B 3.4 03:23:06 10° N 03:27:22 29° NW 03:27:54 28° WNW
Cosmos 1153 Rocket 4.4 03:23:03 10° NNW 03:29:09 63° W 03:35:11 10° S
Cosmos 2322 Rocket 3.4 03:26:48 21° NW 03:29:46 33° N 03:34:55 10° ENE
Alouette 2 Rocket 4.4 03:28:46 37° W 03:30:04 45° NW 03:36:20 10° NNE
SKYMED 3 4.4 03:28:19 10° S 03:32:40 69° WSW 03:37:02 10° NNW
Cosmos 1340 4.3 03:29:23 10° N 03:32:55 35° ENE 03:36:25 10° SE
COSMOS 2441 4.4 03:28:05 10° NNE 03:32:57 61° WNW 03:35:35 26° SW
USA 215 3.5 03:28:01 10° E 03:34:30 60° S 03:38:28 25° WSW
Cosmos 1455 2.5 03:34:33 44° WNW 03:34:37 44° WNW 03:38:16 10° N
NOSS 2-1 (E) 4.4 03:32:56 21° SSW 03:34:53 39° SE 03:38:52 10° ENE
NOSS 2-2 (C) 4.4 03:32:41 32° W 03:35:00 56° SW 03:41:41 10° SE
Spot 2 3.8 03:31:23 10° NNE 03:35:28 85° WNW 03:38:30 18° SSW
Nadezhda 3 Rocket 4.4 03:33:54 28° WSW 03:36:47 45° WNW 03:42:53 10° N
Cosmos 2237 Rocket 2.3 03:34:18 31° WSW 03:36:57 63° NW 03:42:35 10° NE
Meteor 1-27 4.4 03:35:21 10° S 03:40:52 72° ESE 03:46:28 10° NNE
CZ-4B R/B 2.9 03:37:39 10° NNE 03:41:27 71° ESE 03:45:05 10° S
Cosmos 1340 Rocket 4.4 03:43:57 20° NW 03:43:57 20° NW 03:46:41 10° N
Meteor 2-10 Rocket 3.5 03:40:28 18° SW 03:44:17 61° WNW 03:49:22 10° NNE
Cosmos 2219 Rocket 2.9 03:42:44 26° WNW 03:45:23 42° NNW 03:50:47 10° NE
Cosmos 1241 Rocket 4.4 03:42:13 25° WSW 03:46:00 83° NNW 03:52:17 10° ENE
Meteor 1-31 Rocket 2.6 03:42:29 10° NNE 03:46:20 87° WNW 03:50:10 10° SSW
Cosmos 1805 Rocket 3.4 03:42:28 10° NNW 03:46:51 76° WSW 03:51:10 10° S
Sich 1 2.9 03:45:00 10° NNW 03:49:18 89° NE 03:53:37 10° SSE
Cosmos 2173 Rocket 3.9 03:43:08 10° NNW 03:49:27 72° W 03:55:40 10° S
Cosmos 1727 Rocket 3.9 03:44:52 10° SSW 03:51:04 87° WNW 03:57:18 10° NNE
ATLAS CENTAUR R/B 1.7 03:49:21 22° SW 03:52:13 68° SE 03:56:29 10° ENE
MSX 4.0 03:47:28 10° NNE 03:53:02 52° WNW 03:57:22 17° SW
Cosmos 1500 Rocket 4.0 03:49:58 10° NNW 03:54:10 40° W 03:58:18 10° SSW
Cosmos 540 Rocket 4.3 03:50:31 10° NNW 03:55:34 51° NE 04:00:38 10° ESE
Cosmos 1943 Rocket 3.1 03:55:25 24° WSW 03:55:37 24° WSW 03:59:57 10° SSW
NOSS 7 (H) 4.3 03:55:33 39° W 03:56:30 67° N 03:59:59 10° ENE
SKYMED 2 3.8 03:52:35 10° S 03:56:47 46° W 04:01:00 10° NNW
Cosmos 1339 Rocket 4.4 03:51:50 10° SSW 03:57:52 62° WNW 04:04:01 10° NNE
Cosmos 2360 Rocket 3.3 03:55:08 18° WNW 03:58:35 33° N 04:03:40 10° ENE
H-2A R/B 2.5 03:54:51 10° NNE 03:59:11 79° WNW 04:03:38 10° SSW
CZ-2D R/B 4.0 03:57:32 10° N 04:00:00 14° NNW 04:01:45 12° NW
NOSS 0 Rocket 4.2 03:56:43 23° W 04:00:37 55° NNW 04:06:45 10° NE
Cosmos 1697 Rocket 3.6 03:55:37 10° NW 04:01:04 46° NNE 04:06:30 10° ESE
NOSS 3-4 (A) 3.7 03:58:32 18° WNW 04:03:40 80° SSW 04:11:00 10° ESE
NOSS 3-4 (C) 3.7 03:58:37 18° WNW 04:03:47 80° SSW 04:11:06 10° ESE
Okean O Rocket 3.1 04:00:26 10° NNE 04:04:36 40° E 04:08:43 10° SSE
Cosmos 2100 Rocket 4.0 03:58:44 10° NNW 04:04:51 57° W 04:10:53 10° S
Cosmos 1743 Rocket 4.2 04:02:29 10° NNW 04:06:18 30° W 04:10:05 10° SSW
Cosmos 1356 Rocket 3.6 04:03:55 18° SW 04:06:44 47° WNW 04:10:47 10° N
Cosmos 1980 Rocket 3.3 04:01:32 10° NW 04:06:46 39° NNE 04:12:02 10° E
COSMOS 2428 3.5 04:04:38 20° WNW 04:08:03 39° NNW 04:13:26 10° NE
Cosmos 468 Rocket 4.0 04:05:29 10° NW 04:10:51 82° WSW 04:16:10 10° SSE
DMSP B5D1-3 4.5 04:08:23 10° S 04:13:27 66° WSW 04:18:34 10° NNW
Cosmos 1814 Rocket 4.4 04:08:44 10° NNW 04:13:54 63° NE 04:19:06 10° SE
Cosmos 1400 Rocket 4.3 04:11:31 10° SSE 04:15:21 41° E 04:19:15 10° NNE
Cosmos 1570 Rocket 4.2 04:10:54 10° NW 04:16:15 80° NE 04:21:36 10° SE
Cosmos 1869 3.2 04:12:18 10° SSW 04:16:17 85° WNW 04:20:17 10° NNE
FENGYUN 3A 3.8 04:11:12 10° NNE 04:16:41 82° ESE 04:22:09 10° SSW
CZ-2C R/B 4.2 04:12:07 10° ESE 04:17:13 37° NE 04:22:21 10° NNW
Cosmos 1459 Rocket 4.1 04:12:31 10° NNW 04:18:26 51° W 04:24:25 10° SSW
Cosmos 2061 Rocket 4.0 04:12:44 10° NNW 04:19:00 64° W 04:25:10 10° S
SL-16 R/B 2.2 04:15:01 13° SW 04:20:12 69° NW 04:25:54 10° NE
CZ-4B R/B 4.2 04:16:23 10° N 04:20:29 52° WNW 04:24:45 10° SW
Cosmos 2369 Rocket 3.4 04:20:47 15° WNW 04:23:36 21° WSW 04:27:47 10° SSW
Cosmos 1238 Rocket 3.9 04:17:28 10° NNW 04:23:48 58° W 04:29:21 10° S
Cosmos 2084 Rocket 3.5 04:22:11 18° WNW 04:25:30 81° SSW 04:29:59 10° ESE
Cosmos 1174 4.2 04:24:00 17° NW 04:25:59 37° N 04:29:01 10° E
ADEOS II 3.8 04:23:10 10° N 04:26:15 16° NNW 04:28:30 12° WNW
Cosmos 1980 4.3 04:23:06 17° W 04:27:13 43° NNW 04:32:41 10° NE
SJ-12 3.9 04:23:15 10° NNE 04:27:23 78° WNW 04:31:32 10° SSW
Meteor PRIRODA 3.7 04:24:00 10° NNE 04:27:41 57° WNW 04:31:20 10° SW
Cosmos 1842 Rocket 3.9 04:24:15 10° SW 04:28:34 46° WNW 04:32:56 10° N
Cosmos 1725 Rocket 4.0 04:22:52 10° NNW 04:29:03 67° W 04:35:17 10° S
SL-16 R/B 3.4 04:25:21 10° NW 04:30:32 34° NNE 04:35:42 10° ENE
H-2A R/B 4.3 04:27:04 10° NNE 04:30:41 40° E 04:34:14 10° SSE
IDEFIX/ARIANE 42P 3.7 04:26:40 10° N 04:30:55 26° NW 04:34:08 15° W
Cosmos 921 Rocket 4.2 04:27:48 10° NW 04:31:18 23° W 04:34:45 10° SSW
MOS 1-B 4.5 04:26:06 10° NNE 04:31:58 84° ESE 04:37:49 10° SSW
Cosmos 1656 4.0 04:26:44 10° NW 04:32:25 72° NE 04:38:08 10° SE
NOAA 6 4.5 04:27:32 10° NNE 04:32:44 68° ESE 04:37:54 10° S
NOSS 7 (E) 4.4 04:30:54 19° W 04:32:56 62° N 04:36:24 10° E
NOSS 2-1 (C) 3.4 04:30:41 13° WSW 04:33:55 77° SSE 04:38:25 10° ENE
CZ-4B DEB 4.3 04:29:02 10° NNE 04:34:35 84° ESE 04:40:05 10° SSW
Cosmos 1633 3.5 04:31:33 10° NNW 04:34:39 26° W 04:37:45 10° SSW
Cosmos 1603 3.9 04:30:48 10° SSW 04:36:30 75° SE 04:42:11 10° NE
Helios 1A Rocket 4.0 04:32:59 10° NNE 04:37:04 50° ESE 04:41:07 10° S
Cosmos 841 Rocket 3.6 04:32:03 10° NW 04:37:18 86° NE 04:42:34 10° SE
Cosmos 2278 4.4 04:31:56 10° NW 04:37:31 52° NNE 04:43:03 10° ESE
NOSS 2-1 (D) 3.4 04:34:39 12° WSW 04:38:00 80° SSE 04:42:31 10° ENE
ATLAS 2AS CENTAUR R/B 3.0 04:30:43 11° WNW 04:38:20 65° SW 04:45:31 10° SE
CZ-4C R/B 2.6 04:34:38 14° W 04:39:50 78° N 04:47:00 10° ENE
Resurs 1-4 Rocket 4.2 04:38:33 10° N 04:39:50 11° NNW 04:41:07 10° NNW
USA 116 4.2 04:37:16 10° SSW 04:39:52 24° W 04:42:29 10° NW
Cosmos 1802 Rocket 4.3 04:33:54 10° NNW 04:40:00 46° W 04:46:04 10° SSW
Cosmos 2123 Rocket 4.2 04:34:57 10° S 04:41:16 82° E 04:47:35 10° NNE
Cosmos 1633 Rocket 3.1 04:37:02 10° NNW 04:41:20 55° W 04:45:37 10° S
Cosmos 2251 Rocket 3.9 04:36:15 10° WSW 04:41:23 48° NW 04:46:34 10° NNE
Cosmos 1943 3.6 04:35:56 10° SSW 04:41:31 68° SE 04:47:09 10° NE
CZ-4B R/B 3.5 04:37:31 10° NNE 04:42:55 70° ESE 04:48:12 10° S
Cosmos 1666 Rocket 3.8 04:39:32 10° NNW 04:43:51 47° W 04:48:05 10° SSW
CZ-2C R/B 3.2 04:39:17 10° N 04:43:58 34° NW 04:48:35 10° WSW
Cosmos 1862 3.9 04:40:45 10° NNW 04:44:24 35° W 04:48:02 10° SSW
Cosmos 1933 Rocket 3.6 04:40:01 10° NNW 04:44:25 83° ENE 04:48:47 10° SSE
Cosmos 220 Rocket 4.0 04:40:25 10° NW 04:44:36 59° WSW 04:48:45 10° SSE
COSMO-SKYMED 1 3.7 04:41:53 10° SW 04:45:15 22° W 04:48:39 10° NW
Meteor 1-20 Rocket 4.4 04:39:40 10° NNW 04:45:21 83° ENE 04:51:06 10° SSE
Cosmos 1763 Rocket 3.6 04:40:41 10° NW 04:45:57 61° WSW 04:51:12 10° SSE
RESURS DK-1 3.7 04:45:09 10° NW 04:49:00 33° NNE 04:52:49 10° E
Cosmos 2221 3.0 04:46:54 10° SW 04:50:54 37° WNW 04:54:58 10° N
ALOS 2.4 04:47:37 10° NNE 04:52:13 56° WNW 04:56:48 10° SW
Cosmos 1484 Rocket 3.4 04:48:46 10° N 04:52:24 36° WNW 04:56:03 10° SW
Cosmos 1461 3.3 04:49:39 11° WNW 04:53:37 61° NNE 04:58:00 10° E
ADEOS Rocket 3.5 04:47:48 10° S 04:54:08 52° W 05:01:13 10° NNW
Cosmos 2333 Rocket 3.2 04:49:47 11° WNW 04:54:48 33° N 04:59:58 10° ENE
Cosmos 2369 4.0 04:53:11 10° NW 04:58:55 71° NE 05:04:37 10° SE
Iridium 51 4.0 04:59:06 10° S 05:02:53 82° W 05:06:28 10° N
COSMOS 2455 2.9 04:58:37 10° NW 05:04:37 68° SW 05:10:35 10° SE
ARIANE 5 R/B 4.4 05:03:14 10° N 05:05:08 12° NNW 05:07:01 10° NW
GEOS 3 Rocket 3.9 05:00:04 10° ENE 05:05:22 76° SSE 05:10:42 10° SW
Cosmos 2016 Rocket 4.5 05:00:07 10° NNW 05:05:45 38° W 05:11:26 10° SSW
Mayak 1.5 05:04:37 10° ENE 05:06:22 12° NE 05:08:06 10° NNE
SJ-7 4.5 05:03:26 10° NNE 05:07:42 76° WNW 05:11:57 10° SSW
CZ-2C R/B 3.6 05:03:45 10° SSE 05:08:11 73° WSW 05:12:41 10° NNW
Cosmos 1340 3.2 05:05:03 10° NNW 05:08:35 38° W 05:12:05 10° SSW
Cosmos 2344 4.3 05:00:01 10° WNW 05:08:38 69° SW 05:20:27 10° SE
Cosmos 1346 Rocket 3.0 05:04:58 10° NNW 05:08:45 46° W 05:12:30 10° S
Cosmos 1602 4.1 05:04:54 10° NNW 05:08:45 69° ENE 05:12:35 10° SSE
PSLV R/B 4.3 05:06:43 10° N 05:10:08 35° WNW 05:13:35 10° SW
Cosmos 1455 4.2 05:10:08 10° WNW 05:11:16 11° NW 05:12:23 10° NNW
PAYLOAD B 4.3 05:06:47 10° NNE 05:12:22 69° WNW 05:17:54 10° SW
CZ-4 R/B 3.9 05:10:13 10° NNE 05:13:46 28° E 05:17:14 10° SSE
Elektron 3 4.2 05:11:11 10° W 05:14:00 51° SSW 05:17:17 10° SE
Cosmos 2322 Rocket 3.2 05:09:49 10° NW 05:15:11 39° NNE 05:20:31 10° E
Meteor 1-25 Rocket 4.2 05:10:00 10° NNW 05:15:34 68° WSW 05:21:05 10° S
CZ-4B R/B 3.9 05:13:14 10° N 05:16:15 23° NW 05:19:10 10° WSW
USA 215 3.7 05:11:39 10° ESE 05:18:08 59° S 05:24:36 10° W
METEOR-M 4.4 05:16:42 10° NNE 05:21:48 46° WNW 05:26:53 10° SW
Cosmos 2237 Rocket 3.1 05:16:50 10° W 05:21:59 34° NNW 05:27:08 10° NE
Cosmos 1954 Rocket 4.1 05:16:57 10° SSW 05:22:18 89° NW 05:27:41 10° NE
